This is the latest recevied weather packets stored in our database for station/object N0HOT. If no packets are shown the sender has not sent any weather packets the latest 10 day(s).
| Time | Temp. | Humidity | Pressure | Rain* | Wind** | Luminosity | Snow |
|---|---|---|---|---|---|---|---|
| 1788526747 | 23.33° C | 88% | 1011.1 hPa | 0 mm | - | 48 W/m² | - |
| 1788526444 | 23.33° C | 88% | 1010.8 hPa | 0 mm | - | 46 W/m² | - |
| 1788526143 | 23.33° C | 88% | 1011.1 hPa | 0 mm | - | 40 W/m² | - |
| 1788525840 | 23.33° C | 87% | 1010.8 hPa | 0 mm | - | 33 W/m² | - |
| 1788525534 | 23.33° C | 87% | 1010.8 hPa | 0 mm | - | 26 W/m² | - |
| 1788525229 | 23.33° C | 87% | 1010.8 hPa | 0 mm | - | 21 W/m² | - |
| 1788524919 | 23.33° C | 87% | 1010.8 hPa | 0 mm | - | 13 W/m² | - |
| 1788524618 | 23.33° C | 86% | 1010.5 hPa | 0 mm | - | 8 W/m² | - |
| 1788524314 | 23.33° C | 86% | 1010.5 hPa | 0 mm | - | 9 W/m² | - |
| 1788524010 | 23.33° C | 86% | 1010.5 hPa | 0 mm | - | 11 W/m² | - |
| 1788523706 | 23.33° C | 86% | 1010.5 hPa | 0 mm | - | 9 W/m² | - |
| 1788523402 | 23.89° C | 85% | 1010.1 hPa | 0 mm | - | 6 W/m² | - |
| 1788523097 | 23.89° C | 85% | 1010.1 hPa | 0 mm | - | 5 W/m² | - |
| 1788522792 | 23.89° C | 84% | 1010.5 hPa | 1.78 mm | - | 5 W/m² | - |
| 1788522491 | 23.89° C | 84% | 1010.5 hPa | 1.78 mm | - | 5 W/m² | - |
| 1788522186 | 23.89° C | 83% | 1010.1 hPa | 19.81 mm | - | 3 W/m² | - |
| 1788521881 | 23.89° C | 83% | 1010.5 hPa | 19.81 mm | - | 0 W/m² | - |
| 1788521580 | 23.89° C | 82% | 1010.1 hPa | 0 mm | - | 0 W/m² | - |
| 1788521275 | 23.89° C | 82% | 1010.5 hPa | 0 mm | - | 0 W/m² | - |
| 1788520971 | 23.89° C | 82% | 1010.1 hPa | 0 mm | - | 0 W/m² | - |
| 1788520667 | 23.89° C | 81% | 1010.1 hPa | 0 mm | - | 0 W/m² | - |
| 1788520362 | 24.44° C | 81% | 1010.1 hPa | 0 mm | - | 0 W/m² | - |
| 1788520058 | 24.44° C | 81% | 1010.1 hPa | 0 mm | - | 0 W/m² | - |
| 1788519756 | 24.44° C | 81% | 1010.1 hPa | 0 mm | - | 0 W/m² | - |
| 1788519452 | 24.44° C | 81% | 1009.8 hPa | 0 mm | - | 0 W/m² | - |
* Rain latest hour (hover to see other rain measurements)
** Current wind speed in m/s (hover to see current wind gust speed)